Other Public Products
Issued by NWS Grand Forks, ND

Home | Current Version | Previous Version | Text Only | Print | Product List | Glossary Off
Versions: 1 2 3 4 5 6 7 8 9 10 11 12 13 14 15 16 17 18 19 20 21 22 23 24 25 26 27 28 29 30 31 32 33 34 35 36 37 38 39 40 41 42 43 44 45 46 47 48 49 50

000
FPUS83 KFGF 190710
OPUFGF
PRAIRIE TO PINES WEATHER ROUNDUP
NATIONAL WEATHER SERVICE EASTERN NORTH DAKOTA/GRAND FORKS ND
200 AM CDT SAT APR 19 2014

 **SATELLITE DATA USED TO AUGMENT SKY COVER AT AUTOMATED STATIONS**
 *****  WEATHER ACROSS EASTERN NORTH DAKOTA  *****

CITY           SKY/WX    TMP DP  RH WIND       PRES   REMARKS
GRAND FORKS    CLOUDY    46  31  55 SE32G40   29.76F
GRAND FORKS AF CLOUDY    44  31  58 S21G32    29.76F
GRAND CITY NWS   N/A     45 N/A N/A SE33        N/A
BUXTON         NOT AVBL
DEVILS LAKE    MOCLDY    39  28  65 SE13      29.70F
FARGO          CLOUDY    51  31  46 SE41G53   29.76F
WAHPETON ARPT  PTSUNNY   46  32  57 SE30G38   29.84F
$$

 *****  WEATHER ACROSS CENTRAL AND WESTERN NORTH DAKOTA  *****

CITY           SKY/WX    TMP DP  RH WIND       PRES   REMARKS
JAMESTOWN      CLOUDY    47  38  71 SE10      29.65R
BISMARCK       CLEAR     43  37  79 W12       29.70R
MINOT          CLEAR     35  33  92 SW7       29.71R FOG
MINOT AFB      PTCLDY    33  33  99 SW8       29.71R FOG
GARRISON         N/A     39  36  89 W12       29.73R
WILLISTON      CLOUDY    41  37  86 SW10      29.72R
DICKINSON      PTCLDY    37  32  82 W10       29.74F
HETTINGER      PTCLDY    39  33  79 NW10      29.81S
$$

 *****  OTHER OBSERVATIONS NORTHEAST NORTH DAKOTA  *****

CITY           SKY/WX    TMP DP  RH WIND       PRES   REMARKS
WALHALLA       FAIR      39  36  87 SE21G28   29.78F
LANGDON        PTSUNNY   37  32  81 SE22      29.74F
CAVALIER       PTSUNNY   39  32  75 SE14G22   29.80F
GRAFTON        FAIR      41  32  70 SE18G28   29.79F
CANDO          FAIR      39  32  75 SE13      29.71F
FORT TOTTEN      N/A     43  33  67 SE16      29.95S
ROLLA          CLOUDY    36  32  87 SE10      29.72F
RUGBY          FAIR      36  32  87 E10       29.68F
 ***** THE ABOVE OBSERVATIONS ARE NON NWS ARE NOT QUALITY
        CONTROLLED AND MAY MIS-REPORT RAIN FOR SNOW...
$$

 *****  OTHER OBSERVATIONS SOUTHEAST NORTH DAKOTA *****

CITY           SKY/WX    TMP DP  RH WIND       PRES   REMARKS
COOPERSTOWN    FAIR      43  36  75 SE26G38   29.69S
VALLEY CITY    FAIR      46  36  66 S21G32    29.68F
OAKES          FAIR      54  41  62 SE29G38   29.65F
GWINNER        MOSUNNY   46  36  66 SE28G35   29.75F
SHEYENNE NWR     N/A     48  34  59 SE23      29.95S
BUFFALO        NOT AVBL
WYNDMERE       NOT AVBL
 ***** THE ABOVE OBSERVATIONS ARE NON NWS ARE NOT QUALITY
       CONTROLLED AND MAY MIS-REPORT RAIN FOR SNOW...
$$

  *****  WEATHER ACROSS NORTHERN MINNESOTA  *****

CITY           SKY/WX    TMP DP  RH WIND       PRES   REMARKS
FLAG ISLAND    LGT SNOW  34  30  86 E22G30    30.03F WCI  22
WARROAD        MIX PCPN  36  28  75 E20G25    30.00F
ROSEAU         RAIN      34  28  80 E21G31    29.94F WCI  22
HALLOCK        DRIZZLE   39  34  81 SE24G32   29.82F
THF RVR FALLS  CLOUDY    37  28  70 SE26G35   29.84F
HALSTAD          N/A     46  28  50 SE32G45     N/A
FOSSTON        CLOUDY    39  28  65 SE25G37   29.86F
BAUDETTE       CLOUDY    35  26  69 SE21G31   30.06F WCI  24
WASKISH        CLOUDY    39  19  45 E16G25    30.05F
CROOKSTON      CLOUDY    45  30  57 SE31G38   29.78F
$$
  *****  WEATHER ACROSS CENTRAL AND WEST MINNESOTA  *****

CITY           SKY/WX    TMP DP  RH WIND       PRES   REMARKS
BEMIDJI        LGT RAIN  37  26  63 SE25G36   30.00F
PARK RAPIDS    CLOUDY    42  23  46 SE24G31   30.01F
WADENA         CLOUDY    43  27  52 SE24G31   30.00F
DETROIT LAKES  LGT RAIN  43  30  61 SE30G41   29.88F
MOORHEAD       NOT AVBL
FERGUS FALLS   MOCLDY    45  27  49 SE32G40   29.87F
ELBOW LAKE     FAIR      45  31  59 SE22G32   29.91F
MORRIS MN      PTCLDY    45  34  65 SE30G40   29.90F
STAPLES        CLOUDY    43  25  49 SE14G23   30.05S
WHEATON        MOCLDY    48  37  66 SE29      29.88R
$$
  *****  WEATHER ELSEWHERE ACROSS MINNESOTA  *****

CITY           SKY/WX    TMP DP  RH WIND       PRES   REMARKS
DULUTH         CLOUDY    32  23  69 E18       30.24F WCI  20
INTRNTL FALLS  CLOUDY    34  25  69 SE17G24   30.19F WCI  23
ELY            CLOUDY    32  19  59 SE10      30.28F WCI  24
CLOQUET        CLOUDY    32  23  69 E15       30.22F WCI  22
BRAINERD       CLOUDY    46  24  42 SE13G22   30.10F
HIBBING        CLOUDY    35  21  56 SE14      30.21F
ALEXANDRIA     PTCLDY    40  29  64 SE22G33   30.00F
SAINT CLOUD    CLOUDY    43  26  51 SE14G21   30.09F
MINNEAPOLIS    MOCLDY    45  28  51 SE17      30.17F
$$

  *****  WEATHER ACROSS SOUTH DAKOTA  *****

CITY           SKY/WX    TMP DP  RH WIND       PRES   REMARKS
SIOUX FALLS    CLOUDY    55  39  54 S16G26    29.91F
BROOKINGS      NOT AVBL
WATERTOWN      CLOUDY    51  38  60 S20G31    29.82F
HURON          CLOUDY    58  41  53 S17G32    29.76F
SISSETON         N/A     46  36  68 S21G30    29.81F
ABERDEEN       CLOUDY    56  41  57 S23G31    29.69F
MITCHELL       CLOUDY    60  43  53 S15       29.85R
PIERRE         CLOUDY    62  41  46 NW22G33   29.69R
MOBRIDGE       MOCLDY    51  39  63 NW18      29.68R
RAPID CITY     CLOUDY    49  40  71 N38G49    29.86R
$$

  *****  SOME WEATHER IN NEARBY STATES *****

CITY           SKY/WX    TMP DP  RH WIND       PRES   REMARKS
GLASGOW MT     CLOUDY    37  31  78 W6        29.75R
GREAT FALLS MT CLEAR     36  20  52 SW15      29.90R
CHEYENNE WY    CLOUDY    50  33  52 W6        29.96R
SCOTTSBLUFF NE CLOUDY    54  35  48 NW6       29.86R
OMAHA NE       PTCLDY    54  39  57 S15       30.06F
DES MOINES IA  CLOUDY    52  34  50 SE10      30.18S
DAVENPORT IA   CLEAR     41  32  70 E18       30.33S
CHICAGO IL     CLEAR     38  26  62 NE10      30.36F
EAU CLAIRE WI  MOCLDY    41  25  53 SE10      30.28R
LA CROSSE WI   PTCLDY    45  29  53 SE9       30.28S
$$

  *****  SOME NATIONAL WEATHER *****

CITY           SKY/WX    TMP DP  RH WIND       PRES   REMARKS
LA GUARDIA NY  MOCLDY    42  31  64 SW8       30.24F
RALEIGH NC     RAIN      48  45  89 NE9       30.19S FOG
ATLANTA GA     CLOUDY    52  49  89 NE15      30.06F
NEW ORLEANS LA PTCLDY    61  54  77 NE17      30.12F
OKLAHOMA CITY  MOCLDY    52  42  69 S6        30.14S
ALBUQUERQUE NM CLOUDY    57  45  64 CALM      30.13F
SALT LAKE CITY PTCLDY    48  47  96 W3        29.97S
LOS ANGELES CA MOCLDY    61  54  77 SW3       29.95R
BOISE ID       MOCLDY    46  26  45 SE5       29.98S
SEATTLE WA     MOCLDY    49  35  58 E6        29.91F
$$

*** WEATHER ACROSS MANITOBA...SASKATCHEWAN AND ONTARIO ***
                ***ONTARIO***

CITY           SKY/WX    TMP DP  RH WIND       PRES   REMARKS
GERALDTON      PTCLDY    19  12  73 E2        30.43R
THUNDER BAY    MOCLDY    25  23  93 E8        30.42F WCI  16
SIOUX LOOKOUT  MOCLDY    34  18  51 SE9       30.27F
TORONTO        CLEAR     34  28  80 NW10      30.32S
BIG TROUT LK   CLEAR     23  10  58 SE6       30.40S WCI  16
PICKLE LAKE    NOT AVBL
DRYDEN         CLOUDY    34  23  64 SE18G25   30.21F WCI  23
KENORA         NOT AVBL
$$
                *** MANITOBA***

CITY           SKY/WX    TMP DP  RH WIND       PRES   REMARKS
BRANDON        LGT RAIN  34  32  93 E15       29.75F WCI  24
DAUPHIN        CLOUDY    34  32  93 SE17G25   29.79F WCI  23
ISLAND LAKE    PTCLDY    30  12  47 SE10      30.21F WCI  21
PILOT MOUND      N/A     36  32  87 SE14        N/A
THE PAS        LGT SNOW  30  27  86 SE9       29.96  WCI  22
THOMPSON       PTCLDY    27   9  46 E8        30.16F WCI  18
WINNIPEG       LGT RAIN  36  32  87 SE28G35   29.86F
LYNN LAKE      MOCLDY    23   3  42 E8        30.09F WCI  14
CHURCHILL      CLEAR      9   7  92 S10       30.35F WCI  -6
GILLAM         CLEAR     23  12  63 E6        30.29F WCI  16
$$
                ***SASKATCHEWAN***

CITY           SKY/WX    TMP DP  RH WIND       PRES   REMARKS
ESTEVAN        NOT AVBL
KINDERSLEY     FLURRIES  32  30  93 N14       29.71R WCI  22
LLOYDMINSTER   CLOUDY    30  30 100 N5        29.77S
PRINCE ALBERT  LGT SNOW  28  27  93 E14       29.76F FOG     WCI  17
REGINA         CLOUDY    36  34  93 SW7       29.57F



USA.gov is the U.S. government's official web portal to all federal, state and local government web resources and services.